Change the Weather History Date:

Friday, February 15, 2013

  Actual Average (KGSP) Record (KGSP)
Temperature  
Mean Temperature 45 °F 46 °F  
Max Temperature 60 °F 57 °F 75 °F (1989)
Min Temperature 30 °F 35 °F -3 °F (1899)
Degree Days  
Heating Degree Days 20 19  
Month to date heating degree days 308  
Since 1 July heating degree days 2218  
Cooling Degree Days 0 0  
Month to date cooling degree days 0  
Year to date cooling degree days 0  
Moisture  
Dew Point 33 °F    
Average Humidity 68    
Maximum Humidity 100    
Minimum Humidity 31    
Precipitation  
Precipitation 0.00 in 0.15 in 2.10 in (1912)
Month to date precipitation 2.03  
Year to date precipitation 5.85  
Snow  
Snow 0.00 in 0.00 in 15.00 in (1902)
Month to date snowfall 0.5  
Since 1 July snowfall 3.3  
Snow Depth -    
Sea Level Pressure  
Sea Level Pressure 30.02 in    
Wind  
Wind Speed 2 mph (West)    
Max Wind Speed 15 mph    
Max Gust Speed 20 mph    
Visibility 10 miles    
Events      
T = Trace of Precipitation, MM = Missing Value Source: NWS Daily Summary

Daily Weather History Graph

Daily Weather History Graph

Search for Another Location

Airport or City:

Trip Planner

Search our weather history database for the weather conditions in past years. The results will help you decide how hot, cold, wet, or windy it might be!

Date:

Astronomy

Feb. 15, 2013 Rise Set
Actual Time 7:14 AM EST 6:12 PM EST
Civil Twilight 6:49 AM EST 6:38 PM EST
Nautical Twilight 6:19 AM EST 7:08 PM EST
Astronomical Twilight 5:50 AM EST 7:37 PM EST
Moon 10:06 AM EST (2/15) 11:55 PM EST (2/15)
Length of Visible Light 11h 49m
Length of Day
10h 57m
Waxing Crescent, 30% of the Moon is Illuminated
Feb 15
Waxing Crescent
Feb 17
First Quarter
Feb 25
Full
Mar 4
Last Quarter
Mar 11
New

Hourly Weather History & Observations

Time (EST) Temp. Windchill Dew Point Humidity Pressure Visibility Wind Dir Wind Speed Gust Speed Precip Events Conditions
12:15 AM 41.0 °F - 33.8 °F 76% 30.06 in 10.0 mi Calm Calm - N/A   Clear
12:35 AM 39.2 °F - 33.8 °F 81% 30.06 in 10.0 mi Calm Calm - N/A   Clear
12:55 AM 37.4 °F 34.9 °F 33.8 °F 87% 30.06 in 10.0 mi South 3.5 mph - N/A   Clear
1:15 AM 39.2 °F - 35.6 °F 87% 30.06 in 10.0 mi Calm Calm - N/A   Clear
1:35 AM 37.4 °F - 33.8 °F 87% 30.06 in 10.0 mi Calm Calm - N/A   Clear
1:55 AM 35.6 °F - 33.8 °F 93% 30.06 in 10.0 mi Calm Calm - N/A   Clear
2:15 AM 33.8 °F - 32.0 °F 93% 30.06 in 10.0 mi Calm Calm - N/A   Clear
2:35 AM 35.6 °F 32.8 °F 33.8 °F 93% 30.05 in 10.0 mi NNW 3.5 mph - N/A   Clear
2:55 AM 35.6 °F 32.8 °F 33.8 °F 93% 30.05 in 10.0 mi NW 3.5 mph - N/A   Clear
3:15 AM 32.0 °F - 32.0 °F 100% 30.05 in 10.0 mi Calm Calm - N/A   Clear
3:35 AM 32.0 °F - 32.0 °F 100% 30.05 in 10.0 mi Calm Calm - N/A   Clear
3:55 AM 32.0 °F - 32.0 °F 100% 30.05 in 10.0 mi Calm Calm - N/A   Clear
4:15 AM 32.0 °F - 32.0 °F 100% 30.05 in 10.0 mi Calm Calm - N/A   Clear
4:35 AM 32.0 °F - 32.0 °F 100% 30.05 in 10.0 mi Calm Calm - N/A   Clear
4:55 AM 30.2 °F 26.7 °F 30.2 °F 100% 30.05 in 10.0 mi NNW 3.5 mph - N/A   Clear
5:35 AM 32.0 °F 27.5 °F 32.0 °F 100% 30.05 in 10.0 mi NNW 4.6 mph - N/A   Clear
6:47 AM 32.0 °F - 30.2 °F 93% 30.08 in 10.0 mi Calm Calm - N/A   Clear
7:47 AM 33.8 °F - 32.0 °F 93% 30.08 in 10.0 mi Calm Calm - N/A   Clear
8:47 AM 41.0 °F - 35.6 °F 81% 30.09 in 10.0 mi Calm Calm - N/A   Clear
9:47 AM 50.0 °F - 33.8 °F 54% 30.09 in 10.0 mi West 3.5 mph - N/A   Clear
10:47 AM 55.4 °F - 35.6 °F 47% 30.09 in 10.0 mi SSW 5.8 mph - N/A   Clear
11:47 AM 57.2 °F - 32.0 °F 38% 30.08 in 10.0 mi SSW 5.8 mph - N/A   Clear
12:47 PM 60.8 °F - 30.2 °F 31% 30.05 in 10.0 mi SW 6.9 mph - N/A   Partly Cloudy
1:47 PM 60.8 °F - 30.2 °F 31% 30.01 in 10.0 mi WSW 12.7 mph 19.6 mph N/A   Scattered Clouds
2:47 PM 60.8 °F - 30.2 °F 31% 29.97 in 10.0 mi SW 8.1 mph 17.3 mph N/A   Scattered Clouds
3:47 PM 60.8 °F - 30.2 °F 31% 29.96 in 10.0 mi SW 13.8 mph 19.6 mph N/A   Scattered Clouds
4:47 PM 60.8 °F - 30.2 °F 31% 29.95 in 10.0 mi SW 15.0 mph - N/A   Scattered Clouds
6:47 PM 51.8 °F - 30.2 °F 44% 29.95 in 10.0 mi WSW 3.5 mph - N/A   Clear
7:50 PM 51.8 °F - 32.0 °F 47% 29.95 in 10.0 mi WSW 5.8 mph - N/A   Clear
8:15 PM 50.0 °F - 32.0 °F 50% 29.96 in 10.0 mi West 3.5 mph - N/A   Clear
8:35 PM 51.8 °F - 32.0 °F 47% 29.96 in 10.0 mi WNW 3.5 mph - N/A   Scattered Clouds
8:47 PM 51.8 °F - 30.2 °F 44% 29.96 in 10.0 mi WNW 3.5 mph - N/A   Scattered Clouds
8:55 PM 50.0 °F - 32.0 °F 50% 29.96 in 10.0 mi Calm Calm - N/A   Scattered Clouds
9:15 PM 50.0 °F - 32.0 °F 50% 29.96 in 10.0 mi Calm Calm - N/A   Mostly Cloudy
9:35 PM 50.0 °F - 32.0 °F 50% 29.97 in 10.0 mi Calm Calm - N/A   Overcast
9:55 PM 51.8 °F - 32.0 °F 47% 29.97 in 10.0 mi Calm Calm - N/A   Overcast
10:15 PM 48.2 °F - 33.8 °F 58% 29.97 in 10.0 mi Calm Calm - N/A   Overcast
10:35 PM 50.0 °F - 33.8 °F 54% 29.98 in 10.0 mi NE 6.9 mph - N/A   Overcast
10:55 PM 46.4 °F 44.3 °F 35.6 °F 66% 29.98 in 10.0 mi NNE 4.6 mph - N/A   Scattered Clouds
11:15 PM 44.6 °F 41.4 °F 33.8 °F 66% 29.98 in 10.0 mi NE 5.8 mph - N/A   Clear
11:35 PM 44.6 °F 42.2 °F 33.8 °F 66% 29.98 in 10.0 mi NNE 4.6 mph - N/A   Clear
11:55 PM 44.6 °F 42.2 °F 33.8 °F 66% 29.97 in 10.0 mi NNE 4.6 mph - N/A   Clear